Weather History for Aberdeen / Amory, MS

Change the Weather History Date:

Monday, July 15, 2013

  Actual Average (KCBM) Record (KCBM)
Temperature  
Mean Temperature 82 °F -  
Max Temperature 91 °F 89 °F 102 °F (2000)
Min Temperature 73 °F 69 °F 61 °F (2008)
Cooling Degree Days 17    
Growing Degree Days 32 (Base 50)    
Moisture  
Dew Point 63 °F    
Average Humidity 55    
Maximum Humidity 58    
Minimum Humidity 53    
Precipitation  
Precipitation 0.01 in - - ()
Sea Level Pressure  
Sea Level Pressure 30.16 in    
Wind  
Wind Speed 4 mph (ESE)    
Max Wind Speed 13 mph    
Max Gust Speed 22 mph    
Visibility 8 miles    
Events Rain    
Averages and records for this station are not official NWS values.
T = Trace of Precipitation, MM = Missing Value Source: NWS Daily Summary

Daily Weather History Graph

Daily Weather History Graph

Search for Another Location

Airport:

Trip Planner

Search our weather history database for the weather conditions in past years. The results will help you decide how hot, cold, wet, or windy it might be!

Date:

Astronomy

Jul. 15, 2013 Rise Set
Actual Time 5:54 AM CDT 8:05 PM CDT
Civil Twilight 5:25 AM CDT 8:33 PM CDT
Nautical Twilight 4:51 AM CDT 9:08 PM CDT
Astronomical Twilight 4:13 AM CDT 9:45 PM CDT
Moon 12:50 PM CDT (7/15) No Moon Set
Length of Visible Light 15h 07m
Length of Day
14h 11m
Waxing Crescent, 45% of the Moon is Illuminated
Jul 15
Waxing Crescent
Jul 15
First Quarter
Jul 22
Full
Jul 29
Last Quarter
Aug 6
New

Hourly Weather History & Observations

Time (CDT) Temp. Heat Index Dew Point Humidity Pressure Visibility Wind Dir Wind Speed Gust Speed Precip Events Conditions
12:15 AM 75.2 °F - 57.2 °F 53% 30.09 in 7.0 mi Calm Calm - N/A   Light Drizzle
12:35 AM 75.2 °F - 57.2 °F 53% 30.09 in 6.0 mi Calm Calm - N/A   Light Drizzle
12:55 AM 75.2 °F - 57.2 °F 53% 30.10 in 7.0 mi Calm Calm - N/A   Scattered Clouds
1:15 AM 75.2 °F - 57.2 °F 53% 30.10 in 7.0 mi Calm Calm - N/A   Mostly Cloudy
1:35 AM 75.2 °F - 57.2 °F 53% 30.09 in 8.0 mi Calm Calm - N/A   Partly Cloudy
1:55 AM 73.4 °F - 57.2 °F 57% 30.10 in 7.0 mi Calm Calm - N/A   Partly Cloudy
2:15 AM 73.4 °F - 57.2 °F 57% 30.10 in 8.0 mi East 3.5 mph - N/A   Clear
2:35 AM 73.4 °F - 57.2 °F 57% 30.10 in 8.0 mi East 3.5 mph - N/A   Scattered Clouds
2:55 AM 73.4 °F - 57.2 °F 57% 30.10 in 9.0 mi East 4.6 mph - N/A   Scattered Clouds
3:15 AM 73.4 °F - 57.2 °F 57% 30.10 in 10.0 mi East 3.5 mph - N/A   Scattered Clouds
3:35 AM 73.4 °F - 57.2 °F 57% 30.10 in 9.0 mi East 3.5 mph - N/A   Mostly Cloudy
3:55 AM 73.4 °F - 57.2 °F 57% 30.11 in 9.0 mi East 4.6 mph - N/A   Scattered Clouds
4:15 AM 73.4 °F - 57.2 °F 57% 30.11 in 9.0 mi East 5.8 mph - N/A   Partly Cloudy
4:35 AM 73.4 °F - 57.2 °F 57% 30.12 in 9.0 mi East 4.6 mph - N/A   Clear
4:55 AM 73.4 °F - 57.2 °F 57% 30.12 in 9.0 mi ESE 4.6 mph - N/A   Clear
5:15 AM 73.4 °F - 57.2 °F 57% 30.12 in 8.0 mi East 5.8 mph - N/A   Clear
5:35 AM 73.4 °F - 57.2 °F 57% 30.13 in 9.0 mi SE 4.6 mph - N/A   Clear
5:55 AM 75.2 °F - 57.2 °F 53% 30.14 in 8.0 mi ESE 4.6 mph - N/A   Scattered Clouds
6:15 AM 75.2 °F - 57.2 °F 53% 30.14 in 7.0 mi ESE 5.8 mph - N/A   Scattered Clouds
6:35 AM 75.2 °F - 57.2 °F 53% 30.15 in 7.0 mi East 4.6 mph - N/A   Scattered Clouds
6:55 AM 75.2 °F - 57.2 °F 53% 30.16 in 8.0 mi East 4.6 mph - N/A   Scattered Clouds
7:15 AM 77.0 °F - 60.8 °F 57% 30.17 in 8.0 mi East 6.9 mph - N/A   Partly Cloudy
7:35 AM 78.8 °F - 60.8 °F 54% 30.18 in 8.0 mi ESE 8.1 mph - N/A   Scattered Clouds
7:55 AM 78.8 °F - 62.6 °F 57% 30.18 in 8.0 mi East 4.6 mph - N/A   Mostly Cloudy
8:15 AM 80.6 °F 81.8 °F 62.6 °F 54% 30.19 in 8.0 mi ESE 8.1 mph - N/A   Scattered Clouds
8:35 AM 80.6 °F 82.3 °F 64.4 °F 58% 30.19 in 9.0 mi SE 10.4 mph 16.1 mph N/A   Partly Cloudy
8:55 AM 82.4 °F 83.9 °F 64.4 °F 54% 30.19 in 9.0 mi ESE 10.4 mph 16.1 mph N/A   Partly Cloudy
9:15 AM 82.4 °F 83.9 °F 64.4 °F 54% 30.20 in 9.0 mi ESE 10.4 mph 17.3 mph N/A   Scattered Clouds
9:35 AM 84.2 °F 86.6 °F 66.2 °F 55% 30.20 in 9.0 mi SE 12.7 mph 16.1 mph N/A   Scattered Clouds
9:55 AM 84.2 °F 87.3 °F 68.0 °F 58% 30.20 in 10.0 mi SSE 12.7 mph 21.9 mph N/A   Mostly Cloudy
10:15 AM 84.2 °F 86.6 °F 66.2 °F 55% 30.20 in 9.0 mi SE 11.5 mph - N/A   Scattered Clouds
10:35 AM 86.0 °F 89.4 °F 68.0 °F 55% 30.21 in 9.0 mi SSE 6.9 mph - N/A   Mostly Cloudy
10:55 AM 87.8 °F 92.6 °F 69.8 °F 55% 30.21 in 9.0 mi SE 9.2 mph - N/A   Scattered Clouds
11:15 AM 87.8 °F 92.6 °F 69.8 °F 55% 30.20 in 8.0 mi SSE 10.4 mph 18.4 mph N/A   Scattered Clouds
11:35 AM 87.8 °F 92.6 °F 69.8 °F 55% 30.20 in 10.0 mi SE 9.2 mph - N/A   Mostly Cloudy
11:55 AM 89.6 °F 96.2 °F 71.6 °F 55% 30.20 in 9.0 mi South 8.1 mph 20.7 mph N/A   Mostly Cloudy
12:15 PM 87.8 °F 92.6 °F 69.8 °F 55% 30.20 in 8.0 mi SE 8.1 mph - N/A   Scattered Clouds
12:35 PM 86.0 °F 90.4 °F 69.8 °F 58% 30.19 in 9.0 mi SE 10.4 mph - N/A   Mostly Cloudy
12:55 PM 87.8 °F 92.6 °F 69.8 °F 55% 30.19 in 8.0 mi SE 9.2 mph - N/A   Scattered Clouds
1:15 PM 87.8 °F 92.6 °F 69.8 °F 55% 30.18 in 9.0 mi SE 6.9 mph - N/A   Partly Cloudy
1:35 PM 89.6 °F 96.2 °F 71.6 °F 55% 30.18 in 9.0 mi SE 9.2 mph - N/A   Scattered Clouds
1:55 PM 89.6 °F 96.2 °F 71.6 °F 55% 30.17 in 9.0 mi East 6.9 mph - N/A   Scattered Clouds
2:15 PM 91.4 °F 100.1 °F 73.4 °F 55% 30.16 in 9.0 mi East 6.9 mph - N/A   Scattered Clouds
2:35 PM 87.8 °F 92.6 °F 69.8 °F 55% 30.16 in 10.0 mi ESE 4.6 mph - N/A   Mostly Cloudy
2:55 PM 91.4 °F 100.1 °F 73.4 °F 55% 30.16 in 10.0 mi ESE 6.9 mph - N/A   Scattered Clouds
3:15 PM 89.6 °F 96.2 °F 71.6 °F 55% 30.15 in 5.0 mi East 9.2 mph 16.1 mph N/A   Drizzle
3:35 PM 82.4 °F 83.9 °F 64.4 °F 54% 30.15 in 3.0 mi Calm Calm - 0.01 in   Haze
3:55 PM 86.0 °F 89.4 °F 68.0 °F 55% 30.15 in 9.0 mi SSE 9.2 mph - 0.01 in   Scattered Clouds
4:15 PM 82.4 °F 83.9 °F 64.4 °F 54% 30.15 in 10.0 mi Calm Calm - N/A   Partly Cloudy
4:35 PM 82.4 °F 84.6 °F 66.2 °F 58% 30.15 in 9.0 mi Calm Calm - N/A   Clear
4:55 PM 86.0 °F 90.4 °F 69.8 °F 58% 30.15 in 9.0 mi SSE 5.8 mph - N/A   Clear
5:15 PM 84.2 °F 86.6 °F 66.2 °F 55% 30.14 in 10.0 mi Calm Calm - N/A   Clear
5:35 PM 87.8 °F 92.6 °F 69.8 °F 55% 30.15 in 5.0 mi SE 8.1 mph - N/A Rain Light Rain
5:55 PM 80.6 °F 82.3 °F 64.4 °F 58% 30.15 in 5.0 mi Calm Calm - N/A   Haze
6:15 PM 82.4 °F 83.9 °F 64.4 °F 54% 30.15 in 8.0 mi Calm Calm - N/A   Clear
6:35 PM 82.4 °F 83.9 °F 64.4 °F 54% 30.15 in 9.0 mi NNE 3.5 mph - N/A   Clear
6:55 PM 82.4 °F 84.6 °F 66.2 °F 58% 30.15 in 6.0 mi Calm Calm - N/A   Haze
7:15 PM 84.2 °F 86.6 °F 66.2 °F 55% 30.17 in 9.0 mi Calm Calm - N/A   Clear
7:35 PM 82.4 °F 83.9 °F 64.4 °F 54% 30.17 in 9.0 mi Calm Calm - N/A   Clear
7:55 PM 80.6 °F 82.3 °F 64.4 °F 58% 30.18 in 8.0 mi Calm Calm - N/A   Clear
8:15 PM 78.8 °F - 62.6 °F 57% 30.18 in 5.0 mi Calm Calm - N/A   Haze
10:15 PM 77.0 °F - 60.8 °F 57% 30.19 in 10.0 mi Calm Calm - N/A   Clear
10:35 PM 75.2 °F - 59.0 °F 57% 30.20 in 10.0 mi ESE 4.6 mph - N/A   Clear
10:55 PM 75.2 °F - 59.0 °F 57% 30.20 in 10.0 mi ENE 4.6 mph - N/A   Clear
11:15 PM 75.2 °F - 59.0 °F 57% 30.20 in 10.0 mi East 3.5 mph - N/A   Clear
11:35 PM 75.2 °F - 57.2 °F 53% 30.20 in 10.0 mi Calm Calm - N/A   Clear
11:55 PM 75.2 °F - 57.2 °F 53% 30.20 in 10.0 mi Calm Calm - N/A   Clear